Regional Weather Roundup
Issued by NWS Grand Forks, ND

Home | Current Version | Previous Version | Text Only | Print | Product List | Glossary On
Versions: 1 2 3 4 5 6 7 8 9 10 11 12 13 14 15 16 17 18 19 20 21 22 23 24 25 26 27 28 29 30 31 32 33 34 35 36 37 38 39 40 41 42 43 44 45 46 47 48 49 50
000
ASUS43 KFGF 011831
RWRFGF
PRAIRIE TO PINES  WEATHER ROUNDUP
NATIONAL WEATHER SERVICE EASTERN NORTH DAKOTA/GRAND FORKS ND
100 PM CDT TUE SEP 01 2015

 **SATELLITE DATA USED TO AUGMENT SKY COVER AT AUTOMATED STATIONS**
 *****  WEATHER ACROSS EASTERN NORTH DAKOTA  *****

CITY           SKY/WX    TMP DP  RH WIND       PRES   REMARKS
GRAND FORKS    MOSUNNY   83  55  38 SW12      29.84F
6HR MIN TEMP:  53; 6HR MAX TEMP:  83;

GRAND FRKS AFB SUNNY     85  57  38 W8        29.85F
GRAND FRKS NWS   N/A     84 N/A N/A S9          N/A
DEVILS LAKE    SUNNY     81  55  41 SW7       29.85S
6HR MIN TEMP:  61; 6HR MAX TEMP:  81;

FARGO          SUNNY     86  53  32 SE8       29.86F
WAHPETON ARPT  CLEAR     86  50  28 SE12G17   29.87S
$$

 ***** WEATHER ACROSS CENTRAL AND WESTERN NORTH DAKOTA  *****

CITY           SKY/WX    TMP DP  RH WIND       PRES   REMARKS
BISMARCK       SUNNY     82  60  47 SE10      29.84F
6HR MIN TEMP:  50; 6HR MAX TEMP:  83;

MINOT          SUNNY     83  55  38 S10G18    29.81F
6HR MIN TEMP:  55; 6HR MAX TEMP:  83;

JAMESTOWN      SUNNY     83  56  39 S14       29.86F
6HR MIN TEMP:  52; 6HR MAX TEMP:  83;

MINOT AFB      SUNNY     85  57  38 SW9G20    29.80F
GARRISON         N/A     80  58  46 S9        29.84F
WILLISTON      SUNNY     84  58  40 VRB6      29.79F
6HR MIN TEMP:  46; 6HR MAX TEMP:  84;

DICKINSON      SUNNY     83  57  41 S9        29.82F
6HR MIN TEMP:  56; 6HR MAX TEMP:  83;

HETTINGER      SUNNY     81  59  47 SE13G18   29.85F
6HR MIN TEMP:  50; 6HR MAX TEMP:  81;

$$

 *****  OTHER AIRPORT OBSERVATIONS IN OUR AREA  *****

CITY           SKY/WX    TMP DP  RH WIND       PRES   REMARKS
WALHALLA       FAIR      86  55  35 MISG      29.81F
GRAFTON AIRPOR FAIR      84  54  34 S14       29.84F
VALLEY CITY AR FAIR      82  57  42 S14       29.87F
CANDO          FAIR      84  54  34 SW12      29.84F
CAVALIER APRT  FAIR      84  57  39 SW9       29.82F
GWINNER        FAIR      82  66  57 SE13      29.87S
SHEYENNE NWR     N/A     85  61  43 SE8       29.95S
ROLLA            N/A     81  55  41 SW15G22   29.84F
 ***** THE ABOVE OBSERVATIONS ARE NON NWS ARE NOT QUALITY
       CONTROLLED AND MAY MIS-REPORT RAIN FOR SNOW...
$$

  *****  WEATHER ACROSS NORTHERN MINNESOTA  *****

CITY           SKY/WX    TMP DP  RH WIND       PRES   REMARKS
FLAG ISLAND    SUNNY     73  61  64 S9        29.85F
WARROAD        SUNNY     79  55  44 S9        29.87F
ROSEAU         SUNNY     82  52  34 SW10      29.86F
HALLOCK        SUNNY     82  54  36 SW12      29.83F
THF RVR FALLS  SUNNY     81  52  36 SW10      29.87F
BAUDETTE       SUNNY     79  48  33 SW8       29.88F
6HR MIN TEMP:  51; 6HR MAX TEMP:  80;

WASKISH        SUNNY     79  59  50 W5        29.90S
CROOKSTON      SUNNY     82  55  39 SW12      29.86F
STEPHEN NDAWN    N/A     82  55  39 S10         N/A
GREENBUSH NDAW   N/A     82  52  34 S10         N/A
$$
  *****  WEATHER ACROSS CENTRAL AND WEST MINNESOTA  *****

CITY           SKY/WX    TMP DP  RH WIND       PRES   REMARKS
FOSSTON        SUNNY     82  48  30 S5        29.90S
BEMIDJI        SUNNY     81  51  35 CALM      29.91S
PARK RAPIDS    SUNNY     83  50  31 SE6       29.91F
6HR MIN TEMP:  57; 6HR MAX TEMP:  83;

ELBOW LAKE     FAIR      81  62  51 E8        29.88F
6HR MIN TEMP:  66; 6HR MAX TEMP:  82;

WADENA         SUNNY     82  54  36 CALM      29.90S
DETROIT LAKES  SUNNY     81  50  34 S8        29.91S
MOORHEAD       SUNNY     84  46  26 S8        29.87F
FERGUS FALLS   SUNNY     82  54  36 SE9       29.87F
MORRIS MN      MOSUNNY   82  72  69 SE8       29.88S
STAPLES        SUNNY     82  55  39 E3        29.90F
$$
  *****  WEATHER ELSEWHERE ACROSS MINNESOTA  *****

CITY           SKY/WX    TMP DP  RH WIND       PRES   REMARKS
DULUTH         PTSUNNY   80  66  62 CALM      29.91F
6HR MIN TEMP:  67; 6HR MAX TEMP:  80;

INTRNTL FALLS  SUNNY     78  52  40 VRB6      29.90F
6HR MIN TEMP:  50; 6HR MAX TEMP:  78;

ELY            CLOUDY    75  48  38 W5        29.92F
CLOQUET        PTSUNNY   81  64  57 CALM      29.91F
WHEATON        MOSUNNY   81  66  61 E8        29.89S
BRAINERD       SUNNY     81  59  47 CALM      29.91F
6HR MIN TEMP:  65; 6HR MAX TEMP:  81;

HIBBING        MOSUNNY   80  51  36 W5        29.92F
6HR MIN TEMP:  58; 6HR MAX TEMP:  80;

ALEXANDRIA     MOSUNNY   82  64  54 E7        29.92S
6HR MIN TEMP:  67; 6HR MAX TEMP:  82;

SAINT CLOUD    PTSUNNY   81  71  71 SE6       29.90S
6HR MIN TEMP:  68; 6HR MAX TEMP:  81;

MINNEAPOLIS    PTSUNNY   84  70  62 SE7       29.90F
6HR MIN TEMP:  70; 6HR MAX TEMP:  84;

$$

  *****  WEATHER ACROSS SOUTH DAKOTA  *****

CITY           SKY/WX    TMP DP  RH WIND       PRES   REMARKS
SIOUX FALLS    PTSUNNY   79  70  74 E9        29.89F
6HR MIN TEMP:  68; 6HR MAX TEMP:  80;

BROOKINGS      CLOUDY    73  70  88 E8        29.90F
WATERTOWN      CLOUDY    76  70  82 S7        29.91F
6HR MIN TEMP:  67; 6HR MAX TEMP:  79;

HURON          CLOUDY    76  70  82 VRB3      29.83F
6HR MIN TEMP:  62; 6HR MAX TEMP:  77;

SISSETON         N/A     82  67  60 S9        29.86F
ABERDEEN       MOSUNNY   81  71  71 S10       29.85F
6HR MIN TEMP:  56; 6HR MAX TEMP:  82;

MITCHELL       CLOUDY    76  72  87 E8        29.85F
PIERRE         SUNNY     87  66  49 SE9       29.79F
6HR MIN TEMP:  58; 6HR MAX TEMP:  87;

MOBRIDGE       SUNNY     83  66  56 SE16      29.81F
RAPID CITY     SUNNY     78  61  55 VRB5      29.88F
$$

  *****  SOME WEATHER IN NEARBY STATES *****

CITY           SKY/WX    TMP DP  RH WIND       PRES   REMARKS
GLASGOW MT     SUNNY     78  45  30 VRB6      29.79S
6HR MIN TEMP:  51; 6HR MAX TEMP:  78;

GREAT FALLS MT PTSUNNY   77  37  23 SW25G35   29.85S
6HR MIN TEMP:  60; 6HR MAX TEMP:  77;

CHEYENNE WY    MOSUNNY   83  37  19 W12       30.13F
6HR MIN TEMP:  53; 6HR MAX TEMP:  83;

SCOTTSBLUFF NE SUNNY     85  50  29 W6        29.98F
6HR MIN TEMP:  55; 6HR MAX TEMP:  85;

OMAHA NE       PTSUNNY   85  69  58 S14       29.93F
6HR MIN TEMP:  70; 6HR MAX TEMP:  85;

DES MOINES IA  MOSUNNY   87  70  56 SW10      29.96F HX  92
6HR MIN TEMP:  69; 6HR MAX TEMP:  88;

DAVENPORT IA   SUNNY     86  72  62 S14       30.01F HX  92
6HR MIN TEMP:  72; 6HR MAX TEMP:  86;

CHICAGO IL     MOSUNNY   87  72  60 S12G17    30.03F HX  93
6HR MIN TEMP:  71; 6HR MAX TEMP:  87;

EAU CLAIRE WI  PTSUNNY   84  68  58 S6        29.91F
6HR MIN TEMP:  67; 6HR MAX TEMP:  84;

LA CROSSE WI   MOSUNNY   87  73  62 S12       29.92F HX  94
6HR MIN TEMP:  69; 6HR MAX TEMP:  87;

$$

  *****  SOME NATIONAL WEATHER *****

CITY           SKY/WX    TMP DP  RH WIND       PRES   REMARKS
LA GUARDIA NY  MOSUNNY   86  60  41 NE8       30.04S
6HR MIN TEMP:  77; 6HR MAX TEMP:  87;

RALEIGH NC     MOSUNNY   88  65  46 CALM      30.08F HX  90
6HR MIN TEMP:  69; 6HR MAX TEMP:  89;

ATLANTA GA     PTSUNNY   84  65  52 CALM      30.13S
6HR MIN TEMP:  72; 6HR MAX TEMP:  86;

NEW ORLEANS LA PTSUNNY   90  68  48 VRB5      30.06F HX  94
6HR MIN TEMP:  77; 6HR MAX TEMP:  91;

OKLAHOMA CITY  SUNNY     90  67  46 SW15      30.02F HX  93
6HR MIN TEMP:  67; 6HR MAX TEMP:  90;

ALBUQUERQUE NM MOSUNNY   83  47  28 NW8       30.21F
6HR MIN TEMP:  65; 6HR MAX TEMP:  83;

SALT LAKE CITY MOSUNNY   88  46  23 S17G31    29.98F
6HR MIN TEMP:  71; 6HR MAX TEMP:  88;

LOS ANGELES CA PTSUNNY   75  58  55 S5        29.95R
6HR MIN TEMP:  70; 6HR MAX TEMP:  76;




USA.gov is the U.S. government's official web portal to all federal, state and local government web resources and services.